星链-37581(STARLINK-37581)

导读

STARLINK-37581(NORAD编号69366)是美国SpaceX公司星链星座的V2 Mini版本卫星,于北京时间2026年4月30日随Starlink 17-36任务,由13手猎鹰9号火箭从加州范登堡太空部队基地发射入轨,属于该批次24颗部署卫星之一。 该卫星运行于低地球轨道,搭载激光星间链路,支持手机直连通信功能,单星通信容量为V1.5版本的4倍,可提供高速低延迟宽带接入服务。截至2026年6月,该卫星在轨运行状态正常,是星链全球10300余颗在轨组网卫星的组成部分,为星链覆盖区的民用宽带、应急通信等场景提供服务支撑。

Basic Information
目录编号:
69366
目录名称:
STARLINK-37581
国际标识:
2026-123P
轨道中心:
EARTH
卫星名称:
星链-37581
卫星全名:
星链-37581(STARLINK-37581)
卫星状态:
在轨 (已飞行92 天)
发射日期:
2026-06-04 UTC
国别 :
美国 (US)
星等 :
--
Orbit Information
数据来源 国际轨道数据 AOE轨道数据
星历时间 2026-09-03T15:59:16+0800
23小时前
查看轨道信息
2026-09-03T23:00:00+0800
16小时前
查看轨道信息
半长轴 6840.807km 6840.825km
偏心率 0.0000485 0.0001292
轨道倾角 53.160° 53.161°
近地点辐角 75.504° 104.831°
升交点赤经 222.015° 220.655°
平近点角 284.602° 70.126°
近地点 462.338km 461.804km
远地点 463.002km 463.572km
周期 93.847分钟 93.847分钟
每日圈数 15.344115 15.344054
Detailed Information
固有亮度:
5
最大亮度:
2.5
卫星平台:
Starlink V1.0
覆盖范围:
全球
运营商:
太空探索技术公司
运营商所在国:
美国
制造商(研发单位):
太空探索技术公司
制造商所在国:
美国
使用方式:
暂无
Satellite Introduction
Starlink 计划是 SpaceX 推出的全球卫星互联网项目,通过发射低轨道卫星,为全球尤其是偏远地区提供高速、低延迟的互联网服务。自 2019 年起,Starlink 已部署数千颗卫星,旨在缩小全球数字鸿沟,推动互联网普及。该项目还为军事、航空等行业提供通信支持,带来广泛经济效益。
2D Orbit Map
3D Orbit Map
Orbit Altitude Analysis Chart
Orbit Inclination Analysis Chart
Orbit Comprehensive Analysis Chart
View Comprehensive Chart
Conjunction Data List
Event ID Objects TCA Miss Dist (km) Collision Risk Probability Collision Risk Index (CRI) Action
CDM_260904-094205-343306-936621
2026-09-04T
09:42:03+0000
2.939 km
极远距离
1.218271E-6 低风险 0.37
CDM_260902-001805-828806-936621
2026-09-02T
00:18:43+0000
2.893 km
极远距离
1.205115E-6 低风险 0.37
CDM_260903-021605-198406-936621
2026-09-03T
02:16:00+0000
2.999 km
极远距离
1.007504E-6 低风险 0.35